Year,Month,Day,Hour,Minute,Value (Times are PST for temperature in C)
2008,12,17,02,54,1.30
2008,12,17,02,55,1.30
2008,12,17,02,56,1.30
2008,12,17,02,57,1.20
2008,12,17,02,58,1.20
2008,12,17,02,59,1.20
2008,12,17,03,00,1.10
2008,12,17,03,01,1.10
2008,12,17,03,02,1.10
2008,12,17,03,03,1.10
2008,12,17,03,04,1.10
2008,12,17,03,05,1.00
2008,12,17,03,06,1.00
2008,12,17,03,07,1.00
2008,12,17,03,08,1.00
2008,12,17,03,09,0.90
2008,12,17,03,10,0.90
2008,12,17,03,11,0.90
2008,12,17,03,12,0.90
2008,12,17,03,13,0.90
2008,12,17,03,14,0.80
2008,12,17,03,15,0.80
2008,12,17,03,16,0.80
2008,12,17,03,17,0.80
2008,12,17,03,18,0.80
2008,12,17,03,19,0.80
2008,12,17,03,20,0.80
2008,12,17,03,21,0.80
2008,12,17,03,22,0.80
2008,12,17,03,23,0.80
2008,12,17,03,24,0.80
2008,12,17,03,25,0.80
2008,12,17,03,26,0.80
2008,12,17,03,27,0.80
2008,12,17,03,28,0.80
2008,12,17,03,29,0.80
2008,12,17,03,30,0.80
2008,12,17,03,31,0.80
2008,12,17,03,32,0.80
2008,12,17,03,33,0.80
2008,12,17,03,34,0.80
2008,12,17,03,35,0.80
2008,12,17,03,36,0.80
2008,12,17,03,37,0.80
2008,12,17,03,38,0.80
2008,12,17,03,39,0.80
2008,12,17,03,40,0.80
2008,12,17,03,41,0.80
2008,12,17,03,42,0.80
2008,12,17,03,43,0.80
2008,12,17,03,44,0.80
2008,12,17,03,45,0.80
2008,12,17,03,46,0.80
2008,12,17,03,47,0.80
2008,12,17,03,48,0.80
2008,12,17,03,49,0.90
2008,12,17,03,50,0.90
2008,12,17,03,51,0.90
2008,12,17,03,52,0.90
2008,12,17,03,53,0.90
2008,12,17,03,54,0.90
2008,12,17,03,55,0.90
2008,12,17,03,56,0.90
2008,12,17,03,57,0.90
2008,12,17,03,58,0.90
2008,12,17,03,59,0.90
2008,12,17,04,00,0.90
2008,12,17,04,01,1.00
2008,12,17,04,02,1.00
2008,12,17,04,03,1.00
2008,12,17,04,04,1.00
2008,12,17,04,05,1.00
2008,12,17,04,06,1.00
2008,12,17,04,07,1.00
2008,12,17,04,08,1.00
2008,12,17,04,09,1.00
2008,12,17,04,10,1.00
2008,12,17,04,11,1.00
2008,12,17,04,12,1.00
2008,12,17,04,13,1.00
2008,12,17,04,14,1.00
2008,12,17,04,15,1.00
2008,12,17,04,16,1.00
2008,12,17,04,17,0.90
2008,12,17,04,18,1.00
2008,12,17,04,19,1.00
2008,12,17,04,20,1.00
2008,12,17,04,21,1.00
2008,12,17,04,22,1.00
2008,12,17,04,23,1.00
2008,12,17,04,24,1.00
2008,12,17,04,25,1.10
2008,12,17,04,26,1.00
2008,12,17,04,27,1.00
2008,12,17,04,28,1.00
2008,12,17,04,29,1.00
2008,12,17,04,30,1.00
2008,12,17,04,31,1.00
2008,12,17,04,32,1.00
2008,12,17,04,33,1.00
2008,12,17,04,34,0.90
2008,12,17,04,35,0.90
2008,12,17,04,36,0.90
2008,12,17,04,37,0.90
2008,12,17,04,38,0.90
2008,12,17,04,39,0.90
2008,12,17,04,40,0.90
2008,12,17,04,41,0.90
2008,12,17,04,42,0.80
2008,12,17,04,43,0.80
2008,12,17,04,44,0.80
2008,12,17,04,45,0.80
2008,12,17,04,46,0.80
2008,12,17,04,47,0.80
2008,12,17,04,48,0.80
2008,12,17,04,49,0.80
2008,12,17,04,50,0.80
2008,12,17,04,51,0.80
2008,12,17,04,52,0.80
2008,12,17,04,53,0.80
2008,12,17,04,54,0.80
2008,12,17,04,55,0.80
2008,12,17,04,56,0.70
2008,12,17,04,57,0.70
2008,12,17,04,58,0.80
2008,12,17,04,59,0.80
2008,12,17,05,00,0.80
2008,12,17,05,01,0.80
2008,12,17,05,02,0.80
2008,12,17,05,03,0.80
2008,12,17,05,04,0.80
2008,12,17,05,05,0.80
2008,12,17,05,06,0.80
2008,12,17,05,07,0.80
2008,12,17,05,08,0.80
2008,12,17,05,09,0.80
2008,12,17,05,10,0.80
2008,12,17,05,11,0.80
2008,12,17,05,12,0.80
2008,12,17,05,13,0.80
2008,12,17,05,14,0.80
2008,12,17,05,15,0.80
2008,12,17,05,16,0.80
2008,12,17,05,17,0.80
2008,12,17,05,18,0.80
2008,12,17,05,19,0.80
2008,12,17,05,20,0.80
2008,12,17,05,21,0.80
2008,12,17,05,22,0.80
2008,12,17,05,23,0.80
2008,12,17,05,24,0.80
2008,12,17,05,25,0.80
2008,12,17,05,26,0.80
2008,12,17,05,27,0.80
2008,12,17,05,28,0.80
2008,12,17,05,29,0.80
2008,12,17,05,30,0.80
2008,12,17,05,31,0.80
2008,12,17,05,32,0.80
2008,12,17,05,33,0.80
2008,12,17,05,34,0.80
2008,12,17,05,35,0.80
2008,12,17,05,36,0.80
2008,12,17,05,37,0.80
2008,12,17,05,38,0.80
2008,12,17,05,39,0.80
2008,12,17,05,40,0.80
2008,12,17,05,41,0.80
2008,12,17,05,42,0.80
2008,12,17,05,43,0.80
2008,12,17,05,44,0.80
2008,12,17,05,45,0.80
2008,12,17,05,46,0.80
2008,12,17,05,47,0.80
2008,12,17,05,48,0.80
2008,12,17,05,49,0.80
2008,12,17,05,50,0.70
2008,12,17,05,51,0.70
2008,12,17,05,52,0.70
2008,12,17,05,53,0.80
2008,12,17,05,54,0.80
2008,12,17,05,55,0.80
2008,12,17,05,56,0.80
2008,12,17,05,57,0.80
2008,12,17,05,58,0.80
2008,12,17,05,59,0.80
2008,12,17,06,00,0.80
2008,12,17,06,01,0.80
2008,12,17,06,02,0.80
2008,12,17,06,03,0.80
2008,12,17,06,04,0.80
2008,12,17,06,05,0.80
2008,12,17,06,06,0.80
2008,12,17,06,07,0.80
2008,12,17,06,08,0.80
2008,12,17,06,09,0.80
2008,12,17,06,10,0.80
2008,12,17,06,11,0.80
2008,12,17,06,12,0.80
2008,12,17,06,13,0.80
2008,12,17,06,14,0.80
2008,12,17,06,15,0.80
2008,12,17,06,16,0.80
2008,12,17,06,17,0.80
2008,12,17,06,18,0.80
2008,12,17,06,19,0.80
2008,12,17,06,20,0.80
2008,12,17,06,21,0.80
2008,12,17,06,22,0.80
2008,12,17,06,23,0.80
2008,12,17,06,24,0.80
2008,12,17,06,25,0.80
2008,12,17,06,26,0.80
2008,12,17,06,27,0.80
2008,12,17,06,28,0.80
2008,12,17,06,29,0.80
2008,12,17,06,30,0.80
2008,12,17,06,31,0.80
2008,12,17,06,32,0.80
2008,12,17,06,33,0.80
2008,12,17,06,34,0.80
2008,12,17,06,35,0.80
2008,12,17,06,36,0.80
2008,12,17,06,37,0.80
2008,12,17,06,38,0.80
2008,12,17,06,39,0.80
2008,12,17,06,40,0.80
2008,12,17,06,41,0.80
2008,12,17,06,42,0.80
2008,12,17,06,43,0.80
2008,12,17,06,44,0.80
2008,12,17,06,45,0.80
2008,12,17,06,46,0.80
2008,12,17,06,47,0.80
2008,12,17,06,48,0.80
2008,12,17,06,49,0.80
2008,12,17,06,50,0.80
2008,12,17,06,51,0.80
2008,12,17,06,52,0.80
2008,12,17,06,53,0.80
2008,12,17,06,54,0.80
2008,12,17,06,55,0.80
2008,12,17,06,56,0.80
2008,12,17,06,57,0.80
2008,12,17,06,58,0.80
2008,12,17,06,59,0.80
2008,12,17,07,00,0.80
2008,12,17,07,01,0.80
2008,12,17,07,02,0.80
2008,12,17,07,03,0.80
2008,12,17,07,04,0.80
2008,12,17,07,05,0.80
2008,12,17,07,06,0.80
2008,12,17,07,07,0.80
2008,12,17,07,08,0.80
2008,12,17,07,09,0.80
2008,12,17,07,10,0.80
2008,12,17,07,11,0.80
2008,12,17,07,12,0.80
2008,12,17,07,13,0.80
2008,12,17,07,14,0.80
2008,12,17,07,15,0.80
2008,12,17,07,16,0.80
2008,12,17,07,17,0.80
2008,12,17,07,18,0.80
2008,12,17,07,19,0.80
2008,12,17,07,20,0.80
2008,12,17,07,21,0.80
2008,12,17,07,22,0.80
2008,12,17,07,23,0.70
2008,12,17,07,24,0.80
2008,12,17,07,25,0.80
2008,12,17,07,26,0.70
2008,12,17,07,27,0.80
2008,12,17,07,28,0.80
2008,12,17,07,29,0.70
2008,12,17,07,30,0.70
2008,12,17,07,31,0.70
2008,12,17,07,32,0.70
2008,12,17,07,33,0.70
2008,12,17,07,34,0.80
2008,12,17,07,35,0.80
2008,12,17,07,36,0.80
2008,12,17,07,37,0.80
2008,12,17,07,38,0.80
2008,12,17,07,39,0.80
2008,12,17,07,40,0.80
2008,12,17,07,41,0.70
2008,12,17,07,42,0.80
2008,12,17,07,43,0.70
2008,12,17,07,44,0.80
2008,12,17,07,45,0.80
2008,12,17,07,46,0.80
2008,12,17,07,47,0.80
2008,12,17,07,48,0.80
2008,12,17,07,49,0.80
2008,12,17,07,50,0.80
2008,12,17,07,51,0.80
2008,12,17,07,52,0.80
2008,12,17,07,53,0.80
2008,12,17,07,54,0.80
2008,12,17,07,55,0.80
2008,12,17,07,56,0.80
2008,12,17,07,57,0.80
2008,12,17,07,58,0.80
2008,12,17,07,59,0.80
2008,12,17,08,00,0.80
2008,12,17,08,01,0.80
2008,12,17,08,02,0.80
2008,12,17,08,03,0.80
2008,12,17,08,04,0.90
2008,12,17,08,05,0.90
2008,12,17,08,06,0.90
2008,12,17,08,07,0.90
2008,12,17,08,08,0.90
2008,12,17,08,09,0.90
2008,12,17,08,10,0.90
2008,12,17,08,11,0.90
2008,12,17,08,12,0.90
2008,12,17,08,13,0.90
2008,12,17,08,14,0.90
2008,12,17,08,15,0.90
2008,12,17,08,16,1.00
2008,12,17,08,17,1.00
2008,12,17,08,18,1.00
2008,12,17,08,19,0.90
2008,12,17,08,20,0.90
2008,12,17,08,21,0.90
2008,12,17,08,22,1.00
2008,12,17,08,23,1.00
2008,12,17,08,24,1.00
2008,12,17,08,25,1.10
2008,12,17,08,26,1.10
2008,12,17,08,27,1.10
2008,12,17,08,28,1.10
2008,12,17,08,29,1.10
2008,12,17,08,30,1.10
2008,12,17,08,31,1.10
2008,12,17,08,32,1.10
2008,12,17,08,33,1.10
2008,12,17,08,34,1.10
2008,12,17,08,35,1.00
2008,12,17,08,36,1.00
2008,12,17,08,37,1.00
2008,12,17,08,38,1.10
2008,12,17,08,39,1.10
2008,12,17,08,40,1.10
2008,12,17,08,41,1.10
2008,12,17,08,42,1.10
2008,12,17,08,43,1.10
2008,12,17,08,44,1.10
2008,12,17,08,45,1.20
2008,12,17,08,46,1.20
2008,12,17,08,47,1.20
2008,12,17,08,48,1.20
2008,12,17,08,49,1.20
2008,12,17,08,50,1.20
2008,12,17,08,51,1.20
2008,12,17,08,52,1.30
2008,12,17,08,53,1.30
2008,12,17,08,54,1.30
2008,12,17,08,55,1.30
2008,12,17,08,56,1.30
2008,12,17,08,57,1.30
2008,12,17,08,58,1.30
2008,12,17,08,59,1.30
2008,12,17,09,00,1.30
2008,12,17,09,01,1.30
2008,12,17,09,02,1.30
2008,12,17,09,03,1.30
2008,12,17,09,04,1.30
2008,12,17,09,05,1.30
2008,12,17,09,06,1.30
2008,12,17,09,07,1.30
2008,12,17,09,08,1.30
2008,12,17,09,09,1.30
2008,12,17,09,10,1.30
2008,12,17,09,11,1.30
2008,12,17,09,12,1.30
2008,12,17,09,13,1.30
2008,12,17,09,14,1.30
2008,12,17,09,15,1.30
2008,12,17,09,16,1.30
2008,12,17,09,17,1.30
2008,12,17,09,18,1.30
2008,12,17,09,19,1.30
2008,12,17,09,20,1.30
2008,12,17,09,21,1.30
2008,12,17,09,22,1.30
2008,12,17,09,23,1.30
2008,12,17,09,24,1.30
2008,12,17,09,25,1.30
2008,12,17,09,26,1.30
2008,12,17,09,27,1.30
2008,12,17,09,28,1.30
2008,12,17,09,29,1.30
2008,12,17,09,30,1.30
2008,12,17,09,31,1.30
2008,12,17,09,32,1.30
2008,12,17,09,33,1.30
2008,12,17,09,34,1.30
2008,12,17,09,35,1.30
2008,12,17,09,36,1.30
2008,12,17,09,37,1.30
2008,12,17,09,38,1.30
2008,12,17,09,39,1.30
2008,12,17,09,40,1.30
2008,12,17,09,41,1.30
2008,12,17,09,42,1.30
2008,12,17,09,43,1.30
2008,12,17,09,44,1.30
2008,12,17,09,45,1.30
2008,12,17,09,46,1.30
2008,12,17,09,47,1.30
2008,12,17,09,48,1.30
2008,12,17,09,49,1.30
2008,12,17,09,50,1.30
2008,12,17,09,51,1.30
2008,12,17,09,52,1.30
2008,12,17,09,53,1.30
2008,12,17,09,54,1.30
2008,12,17,09,55,1.30
2008,12,17,09,56,1.30
2008,12,17,09,57,1.30
2008,12,17,09,58,1.30
2008,12,17,09,59,1.30
2008,12,17,10,00,1.30
2008,12,17,10,01,1.30
2008,12,17,10,02,1.30
2008,12,17,10,03,1.30
2008,12,17,10,04,1.20
2008,12,17,10,05,1.20
2008,12,17,10,06,1.10
2008,12,17,10,07,1.10
2008,12,17,10,08,1.10
2008,12,17,10,09,1.00
2008,12,17,10,10,1.00
2008,12,17,10,11,1.00
2008,12,17,10,12,0.90
2008,12,17,10,13,0.90
2008,12,17,10,14,0.90
2008,12,17,10,15,0.90
2008,12,17,10,16,0.90
2008,12,17,10,17,0.90
2008,12,17,10,18,0.90
2008,12,17,10,19,0.90
2008,12,17,10,20,0.90
2008,12,17,10,21,0.90
2008,12,17,10,22,0.90
2008,12,17,10,23,0.90
2008,12,17,10,24,0.90
2008,12,17,10,25,0.90
2008,12,17,10,26,0.90
2008,12,17,10,27,0.90
2008,12,17,10,28,0.90
2008,12,17,10,29,0.90
2008,12,17,10,30,0.90
2008,12,17,10,31,0.90
2008,12,17,10,32,0.90
2008,12,17,10,33,0.90
2008,12,17,10,34,0.90
2008,12,17,10,35,0.90
2008,12,17,10,36,0.90
2008,12,17,10,37,0.90
2008,12,17,10,38,0.90
2008,12,17,10,39,1.00
2008,12,17,10,40,1.00
2008,12,17,10,41,1.00
2008,12,17,10,42,1.00
2008,12,17,10,43,1.00
2008,12,17,10,44,1.00
2008,12,17,10,45,1.00
2008,12,17,10,46,1.00
2008,12,17,10,47,1.00
2008,12,17,10,48,1.00
2008,12,17,10,49,1.00
2008,12,17,10,50,1.00
2008,12,17,10,51,1.00
2008,12,17,10,52,1.00
2008,12,17,10,53,1.10
2008,12,17,10,54,1.10
2008,12,17,10,55,1.10
2008,12,17,10,56,1.10
2008,12,17,10,57,1.10
2008,12,17,10,58,1.10
2008,12,17,10,59,1.10
2008,12,17,11,00,1.10
2008,12,17,11,01,1.10
2008,12,17,11,02,1.10
2008,12,17,11,03,1.10
2008,12,17,11,04,1.10
2008,12,17,11,05,1.10
2008,12,17,11,06,1.10
2008,12,17,11,07,1.10
2008,12,17,11,08,1.10
2008,12,17,11,09,1.10
2008,12,17,11,10,1.10
2008,12,17,11,11,1.20
2008,12,17,11,12,1.20
2008,12,17,11,13,1.20
2008,12,17,11,14,1.20
2008,12,17,11,15,1.10
2008,12,17,11,16,1.10
2008,12,17,11,17,1.10
2008,12,17,11,18,1.10
2008,12,17,11,19,1.10
2008,12,17,11,20,1.10
2008,12,17,11,21,1.10
2008,12,17,11,22,1.10
2008,12,17,11,23,1.10
2008,12,17,11,24,1.10
2008,12,17,11,25,1.10
2008,12,17,11,26,1.10
2008,12,17,11,27,1.10
2008,12,17,11,28,1.10
2008,12,17,11,29,1.10
2008,12,17,11,30,1.10
2008,12,17,11,31,1.10
2008,12,17,11,32,1.10
2008,12,17,11,33,1.10
2008,12,17,11,34,1.10
2008,12,17,11,35,1.10
2008,12,17,11,36,1.20
2008,12,17,11,37,1.20
2008,12,17,11,38,1.20
2008,12,17,11,39,1.20
2008,12,17,11,40,1.20
2008,12,17,11,41,1.20
2008,12,17,11,42,1.20
2008,12,17,11,43,1.20
2008,12,17,11,44,1.20
2008,12,17,11,45,1.20
2008,12,17,11,46,1.10
2008,12,17,11,47,1.10
2008,12,17,11,48,1.10
2008,12,17,11,49,1.10
2008,12,17,11,50,1.10
2008,12,17,11,51,1.10
2008,12,17,11,52,1.10
2008,12,17,11,53,1.10
2008,12,17,11,54,1.10
2008,12,17,11,55,1.10
2008,12,17,11,56,1.10
2008,12,17,11,57,1.20
2008,12,17,11,58,1.20
2008,12,17,11,59,1.20
2008,12,17,12,00,1.20
2008,12,17,12,01,1.20
2008,12,17,12,02,1.20
2008,12,17,12,03,1.20
2008,12,17,12,04,1.20
2008,12,17,12,05,1.20
2008,12,17,12,06,1.10
2008,12,17,12,07,1.10
2008,12,17,12,08,1.10
2008,12,17,12,09,1.10
2008,12,17,12,10,1.10
2008,12,17,12,11,1.10
2008,12,17,12,12,1.10
2008,12,17,12,13,1.00
2008,12,17,12,14,1.00
2008,12,17,12,15,0.90
2008,12,17,12,16,0.90
2008,12,17,12,17,0.90
2008,12,17,12,18,0.90
2008,12,17,12,19,0.80
2008,12,17,12,20,0.80
2008,12,17,12,21,0.80
2008,12,17,12,22,0.80
2008,12,17,12,23,0.70
2008,12,17,12,24,0.70
2008,12,17,12,25,0.70
2008,12,17,12,26,0.70
2008,12,17,12,27,0.60
2008,12,17,12,28,0.60
2008,12,17,12,29,0.60
2008,12,17,12,30,0.60
2008,12,17,12,31,0.60
2008,12,17,12,32,0.50
2008,12,17,12,33,0.50
2008,12,17,12,34,0.50
2008,12,17,12,35,0.50
2008,12,17,12,36,0.50
2008,12,17,12,37,0.50
2008,12,17,12,38,0.50
2008,12,17,12,39,0.40
2008,12,17,12,40,0.40
2008,12,17,12,41,0.40
2008,12,17,12,42,0.40
2008,12,17,12,43,0.40
2008,12,17,12,44,0.40
2008,12,17,12,45,0.40
2008,12,17,12,46,0.40
2008,12,17,12,47,0.40
2008,12,17,12,48,0.40
2008,12,17,12,49,0.40
2008,12,17,12,50,0.40
2008,12,17,12,51,0.40
2008,12,17,12,52,0.40
2008,12,17,12,53,0.40
2008,12,17,12,54,0.40
2008,12,17,12,55,0.30
2008,12,17,12,56,0.30
2008,12,17,12,57,0.20
2008,12,17,12,58,0.20
2008,12,17,12,59,0.10
2008,12,17,13,00,0.10
2008,12,17,13,01,0.10
2008,12,17,13,02,0.10
2008,12,17,13,03,0.00
2008,12,17,13,04,0.00
2008,12,17,13,05,-0.10
2008,12,17,13,06,-0.10
2008,12,17,13,07,-0.10
2008,12,17,13,08,-0.10
2008,12,17,13,09,-0.10
2008,12,17,13,10,-0.10
2008,12,17,13,11,-0.20
2008,12,17,13,12,-0.20
2008,12,17,13,13,-0.30
2008,12,17,13,14,-0.30
2008,12,17,13,15,-0.30
2008,12,17,13,16,-0.30
2008,12,17,13,17,-0.30
2008,12,17,13,18,-0.40
2008,12,17,13,19,-0.40
2008,12,17,13,20,-0.50
2008,12,17,13,21,-0.50
2008,12,17,13,22,-0.50
2008,12,17,13,23,-0.50
2008,12,17,13,24,-0.50
2008,12,17,13,25,-0.60
2008,12,17,13,26,-0.60
2008,12,17,13,27,-0.70
2008,12,17,13,28,-0.70
2008,12,17,13,29,-0.70
2008,12,17,13,30,-0.80
2008,12,17,13,31,-0.80
2008,12,17,13,32,-0.80
2008,12,17,13,33,-0.90
2008,12,17,13,34,-1.00
2008,12,17,13,35,-1.00
2008,12,17,13,36,-1.00
2008,12,17,13,37,-1.00
2008,12,17,13,38,-1.00
2008,12,17,13,39,-1.10
2008,12,17,13,40,-1.10
2008,12,17,13,41,-1.10
2008,12,17,13,42,-1.10
2008,12,17,13,43,-1.10
2008,12,17,13,44,-1.10
2008,12,17,13,45,-1.10
2008,12,17,13,46,-1.10
2008,12,17,13,47,-1.20
2008,12,17,13,48,-1.20
2008,12,17,13,49,-1.20
2008,12,17,13,50,-1.20
2008,12,17,13,51,-1.20
2008,12,17,13,52,-1.30
2008,12,17,13,53,-1.30
2008,12,17,13,54,-1.30
2008,12,17,13,55,-1.30
2008,12,17,13,56,-1.30
2008,12,17,13,57,-1.30
2008,12,17,13,58,-1.30
2008,12,17,13,59,-1.30
2008,12,17,14,00,-1.30
2008,12,17,14,01,-1.30
2008,12,17,14,02,-1.30
2008,12,17,14,03,-1.30
2008,12,17,14,04,-1.30
2008,12,17,14,05,-1.40
2008,12,17,14,06,-1.40
2008,12,17,14,07,-1.40
2008,12,17,14,08,-1.40
2008,12,17,14,09,-1.40
2008,12,17,14,10,-1.40
2008,12,17,14,11,-1.40
2008,12,17,14,12,-1.40
2008,12,17,14,13,-1.50
2008,12,17,14,14,-1.50
2008,12,17,14,15,-1.50
2008,12,17,14,16,-1.50
2008,12,17,14,17,-1.50
2008,12,17,14,18,-1.60
2008,12,17,14,19,-1.60
2008,12,17,14,20,-1.60
2008,12,17,14,21,-1.60
2008,12,17,14,22,-1.70
2008,12,17,14,23,-1.70
2008,12,17,14,24,-1.70
2008,12,17,14,25,-1.80
2008,12,17,14,26,-1.80
2008,12,17,14,27,-1.80
2008,12,17,14,28,-1.80
2008,12,17,14,29,-1.90
2008,12,17,14,30,-1.90
2008,12,17,14,31,-1.90
2008,12,17,14,32,-1.90
2008,12,17,14,33,-1.90
2008,12,17,14,34,-2.00
2008,12,17,14,35,-2.00
2008,12,17,14,36,-2.10
2008,12,17,14,37,-2.10
2008,12,17,14,38,-2.10
2008,12,17,14,39,-2.10
2008,12,17,14,40,-2.20
2008,12,17,14,41,-2.20
2008,12,17,14,42,-2.20
2008,12,17,14,43,-2.20
2008,12,17,14,44,-2.20
2008,12,17,14,45,-2.20
2008,12,17,14,46,-2.20
2008,12,17,14,47,-2.20
2008,12,17,14,48,-2.20
2008,12,17,14,49,-2.30
2008,12,17,14,50,-2.30
2008,12,17,14,51,-2.30
2008,12,17,14,52,-2.30
2008,12,17,14,53,-2.30
2008,12,17,14,54,-2.30
2008,12,17,14,55,-2.30
2008,12,17,14,56,-2.30
2008,12,17,14,57,-2.30
2008,12,17,14,58,-2.30
2008,12,17,14,59,-2.30
2008,12,17,15,00,-2.30
2008,12,17,15,01,-2.30
2008,12,17,15,02,-2.30
2008,12,17,15,03,-2.30
2008,12,17,15,04,-2.30
2008,12,17,15,05,-2.30
2008,12,17,15,06,-2.30
2008,12,17,15,07,-2.30
2008,12,17,15,08,-2.30
2008,12,17,15,09,-2.30
2008,12,17,15,10,-2.40
2008,12,17,15,11,-2.40
2008,12,17,15,12,-2.40
2008,12,17,15,13,-2.30
2008,12,17,15,14,-2.30
2008,12,17,15,15,-2.30
2008,12,17,15,16,-2.30
2008,12,17,15,17,-2.30
2008,12,17,15,18,-2.30
2008,12,17,15,19,-2.30
2008,12,17,15,20,-2.30
2008,12,17,15,21,-2.30
2008,12,17,15,22,-2.30
2008,12,17,15,23,-2.30
2008,12,17,15,24,-2.30
2008,12,17,15,25,-2.30
2008,12,17,15,26,-2.30
2008,12,17,15,27,-2.30
2008,12,17,15,28,-2.30
2008,12,17,15,29,-2.30
2008,12,17,15,30,-2.30
2008,12,17,15,31,-2.30
2008,12,17,15,32,-2.30
2008,12,17,15,33,-2.30
2008,12,17,15,34,-2.20
2008,12,17,15,35,-2.20
2008,12,17,15,36,-2.30
2008,12,17,15,37,-2.20
2008,12,17,15,38,-2.30
2008,12,17,15,39,-2.30
2008,12,17,15,40,-2.30
2008,12,17,15,41,-2.30
2008,12,17,15,42,-2.30
2008,12,17,15,43,-2.30
2008,12,17,15,44,-2.30
2008,12,17,15,45,-2.30
2008,12,17,15,46,-2.30
2008,12,17,15,47,-2.30
2008,12,17,15,48,-2.30
2008,12,17,15,49,-2.30
2008,12,17,15,50,-2.30
2008,12,17,15,51,-2.30
2008,12,17,15,52,-2.30
2008,12,17,15,53,-2.30
2008,12,17,15,54,-2.30
2008,12,17,15,55,-2.30
2008,12,17,15,56,-2.30
2008,12,17,15,57,-2.40
2008,12,17,15,58,-2.30
2008,12,17,15,59,-2.30
2008,12,17,16,00,-2.30
2008,12,17,16,01,-2.30
2008,12,17,16,02,-2.40
2008,12,17,16,03,-2.40
2008,12,17,16,04,-2.40
2008,12,17,16,05,-2.40
2008,12,17,16,06,-2.40
2008,12,17,16,07,-2.40
2008,12,17,16,08,-2.40
2008,12,17,16,09,-2.50
2008,12,17,16,10,-2.50
2008,12,17,16,11,-2.50
2008,12,17,16,12,-2.50
2008,12,17,16,13,-2.50
2008,12,17,16,14,-2.60
2008,12,17,16,15,-2.60
2008,12,17,16,16,-2.60
2008,12,17,16,17,-2.60
2008,12,17,16,18,-2.60
2008,12,17,16,19,-2.60
2008,12,17,16,20,-2.60
2008,12,17,16,21,-2.60
2008,12,17,16,22,-2.60
2008,12,17,16,23,-2.60
2008,12,17,16,24,-2.70
2008,12,17,16,25,-2.70
2008,12,17,16,26,-2.70
2008,12,17,16,27,-2.70
2008,12,17,16,28,-2.70
2008,12,17,16,29,-2.70
2008,12,17,16,30,-2.60
2008,12,17,16,31,-2.60
2008,12,17,16,32,-2.60
2008,12,17,16,33,-2.60
2008,12,17,16,34,-2.60
2008,12,17,16,35,-2.60
2008,12,17,16,36,-2.60
2008,12,17,16,37,-2.60
2008,12,17,16,38,-2.70
2008,12,17,16,39,-2.70
2008,12,17,16,40,-2.70
2008,12,17,16,41,-2.70
2008,12,17,16,42,-2.70
2008,12,17,16,43,-2.70
2008,12,17,16,44,-2.70
2008,12,17,16,45,-2.70
2008,12,17,16,46,-2.70
2008,12,17,16,47,-2.70
2008,12,17,16,48,-2.70
2008,12,17,16,49,-2.70
2008,12,17,16,50,-2.70
2008,12,17,16,51,-2.70
2008,12,17,16,52,-2.80
2008,12,17,16,53,-2.80
2008,12,17,16,54,-2.80
2008,12,17,16,55,-2.80
2008,12,17,16,56,-2.80
2008,12,17,16,57,-2.80
2008,12,17,16,58,-2.80
2008,12,17,16,59,-2.80
2008,12,17,17,00,-2.80
2008,12,17,17,01,-2.80
2008,12,17,17,02,-2.80
2008,12,17,17,03,-2.80
2008,12,17,17,04,-2.80
2008,12,17,17,05,-2.90
2008,12,17,17,06,-2.90
2008,12,17,17,07,-2.90
2008,12,17,17,08,-2.90
2008,12,17,17,09,-2.90
2008,12,17,17,10,-2.90
2008,12,17,17,11,-2.90
2008,12,17,17,12,-2.90
2008,12,17,17,13,-2.90
2008,12,17,17,14,-2.90
2008,12,17,17,15,-2.90
2008,12,17,17,16,-2.90
2008,12,17,17,17,-2.90
2008,12,17,17,18,-3.00
2008,12,17,17,19,-3.00
2008,12,17,17,20,-3.00
2008,12,17,17,21,-3.00
2008,12,17,17,22,-3.10
2008,12,17,17,23,-3.10
2008,12,17,17,24,-3.10
2008,12,17,17,25,-3.10
2008,12,17,17,26,-3.10
2008,12,17,17,27,-3.10
2008,12,17,17,28,-3.10
2008,12,17,17,29,-3.10
2008,12,17,17,30,-3.10
2008,12,17,17,31,-3.10
2008,12,17,17,32,-3.10
2008,12,17,17,33,-3.10
2008,12,17,17,34,-3.10
2008,12,17,17,35,-3.00
2008,12,17,17,36,-3.00
2008,12,17,17,37,-3.00
2008,12,17,17,38,-3.00
2008,12,17,17,39,-3.00
2008,12,17,17,40,-3.00
2008,12,17,17,41,-3.10
2008,12,17,17,42,-3.00
2008,12,17,17,43,-3.00
2008,12,17,17,44,-3.00
2008,12,17,17,45,-3.00
2008,12,17,17,46,-3.00
2008,12,17,17,47,-3.00
2008,12,17,17,48,-3.00
2008,12,17,17,49,-3.00
2008,12,17,17,50,-3.00
2008,12,17,17,51,-3.00
2008,12,17,17,52,-3.00
2008,12,17,17,53,-3.10
2008,12,17,17,54,-3.10
2008,12,17,17,55,-3.10
2008,12,17,17,56,-3.10
2008,12,17,17,57,-3.10
2008,12,17,17,58,-3.10
2008,12,17,17,59,-3.10
2008,12,17,18,00,-3.10
2008,12,17,18,01,-3.10
2008,12,17,18,02,-3.10
2008,12,17,18,03,-3.10
2008,12,17,18,04,-3.10
2008,12,17,18,05,-3.10
2008,12,17,18,06,-3.10
2008,12,17,18,07,-3.10
2008,12,17,18,08,-3.10
2008,12,17,18,09,-3.10
2008,12,17,18,10,-3.10
2008,12,17,18,11,-3.10
2008,12,17,18,12,-3.10
2008,12,17,18,13,-3.10
2008,12,17,18,14,-3.10
2008,12,17,18,15,-3.00
2008,12,17,18,16,-3.00
2008,12,17,18,17,-3.00
2008,12,17,18,18,-3.10
2008,12,17,18,19,-3.10
2008,12,17,18,20,-3.10
2008,12,17,18,21,-3.00
2008,12,17,18,22,-3.00
2008,12,17,18,23,-3.00
2008,12,17,18,24,-3.00
2008,12,17,18,25,-3.00
2008,12,17,18,26,-3.10
2008,12,17,18,27,-3.10
2008,12,17,18,28,-3.10
2008,12,17,18,29,-3.10
2008,12,17,18,30,-3.10
2008,12,17,18,31,-3.10
2008,12,17,18,32,-3.20
2008,12,17,18,33,-3.20
2008,12,17,18,34,-3.20
2008,12,17,18,35,-3.20
2008,12,17,18,36,-3.20
2008,12,17,18,37,-3.20
2008,12,17,18,38,-3.20
2008,12,17,18,39,-3.30
2008,12,17,18,40,-3.30
2008,12,17,18,41,-3.30
2008,12,17,18,42,-3.30
2008,12,17,18,43,-3.30
2008,12,17,18,44,-3.30
2008,12,17,18,45,-3.30
2008,12,17,18,46,-3.30
2008,12,17,18,47,-3.30
2008,12,17,18,48,-3.30
2008,12,17,18,49,-3.30
2008,12,17,18,50,-3.30
2008,12,17,18,51,-3.30
2008,12,17,18,52,-3.30
2008,12,17,18,53,-3.30
2008,12,17,18,54,-3.30
2008,12,17,18,55,-3.30
2008,12,17,18,56,-3.40
2008,12,17,18,57,-3.40
2008,12,17,18,58,-3.30
2008,12,17,18,59,-3.40
2008,12,17,19,00,-3.40
2008,12,17,19,01,-3.40
2008,12,17,19,02,-3.40
2008,12,17,19,03,-3.40
2008,12,17,19,04,-3.40
2008,12,17,19,05,-3.40
2008,12,17,19,06,-3.40
2008,12,17,19,07,-3.40
2008,12,17,19,08,-3.40
2008,12,17,19,09,-3.40
2008,12,17,19,10,-3.40
2008,12,17,19,11,-3.40
2008,12,17,19,12,-3.30
2008,12,17,19,13,-3.30
2008,12,17,19,14,-3.30
2008,12,17,19,15,-3.30
2008,12,17,19,16,-3.30
2008,12,17,19,17,-3.30
2008,12,17,19,18,-3.30
2008,12,17,19,19,-3.30
2008,12,17,19,20,-3.30
2008,12,17,19,21,-3.30
2008,12,17,19,22,-3.30
2008,12,17,19,23,-3.30
2008,12,17,19,24,-3.30
2008,12,17,19,25,-3.30
2008,12,17,19,26,-3.30
2008,12,17,19,27,-3.30
2008,12,17,19,28,-3.30
2008,12,17,19,29,-3.30
2008,12,17,19,30,-3.30
2008,12,17,19,31,-3.30
2008,12,17,19,32,-3.30
2008,12,17,19,33,-3.30
2008,12,17,19,34,-3.30
2008,12,17,19,35,-3.30
2008,12,17,19,36,-3.30
2008,12,17,19,37,-3.30
2008,12,17,19,38,-3.30
2008,12,17,19,39,-3.30
2008,12,17,19,40,-3.30
2008,12,17,19,41,-3.30
2008,12,17,19,42,-3.30
2008,12,17,19,43,-3.30
2008,12,17,19,44,-3.30
2008,12,17,19,45,-3.30
2008,12,17,19,46,-3.30
2008,12,17,19,47,-3.40
2008,12,17,19,48,-3.40
2008,12,17,19,49,-3.30
2008,12,17,19,50,-3.30
2008,12,17,19,51,-3.30
2008,12,17,19,52,-3.30
2008,12,17,19,53,-3.40
2008,12,17,19,54,-3.40
2008,12,17,19,55,-3.50
2008,12,17,19,56,-3.50
2008,12,17,19,57,-3.50
2008,12,17,19,58,-3.50
2008,12,17,19,59,-3.50
2008,12,17,20,00,-3.50
2008,12,17,20,01,-3.50
2008,12,17,20,02,-3.50
2008,12,17,20,03,-3.50
2008,12,17,20,04,-3.50
2008,12,17,20,05,-3.50
2008,12,17,20,06,-3.50
2008,12,17,20,07,-3.50
2008,12,17,20,08,-3.50
2008,12,17,20,09,-3.40
2008,12,17,20,10,-3.40
2008,12,17,20,11,-3.40
2008,12,17,20,12,-3.40
2008,12,17,20,13,-3.40
2008,12,17,20,14,-3.40
2008,12,17,20,15,-3.40
2008,12,17,20,16,-3.40
2008,12,17,20,17,-3.40
2008,12,17,20,18,-3.40
2008,12,17,20,19,-3.40
2008,12,17,20,20,-3.40
2008,12,17,20,21,-3.40
2008,12,17,20,22,-3.40
2008,12,17,20,23,-3.40
2008,12,17,20,24,-3.40
2008,12,17,20,25,-3.50
2008,12,17,20,26,-3.50
2008,12,17,20,27,-3.50
2008,12,17,20,28,-3.50
2008,12,17,20,29,-3.50
2008,12,17,20,30,-3.50
2008,12,17,20,31,-3.50
2008,12,17,20,32,-3.50
2008,12,17,20,33,-3.40
2008,12,17,20,34,-3.50
2008,12,17,20,35,-3.50
2008,12,17,20,36,-3.50
2008,12,17,20,37,-3.50
2008,12,17,20,38,-3.50
2008,12,17,20,39,-3.50
2008,12,17,20,40,-3.50